New River MCAS, NC

5:39 AM EDT on October 18, 2017 (GMT -0400)
New River Marine Corps Air Station

Weather History for KNCA - October, 2014

Change the Weather History Date:

Monday, October 6, 2014

  Actual Average Record
Temperature  
Mean Temperature 60 °F -  
Max Temperature 73 °F 75 °F 89 °F (1997)
Min Temperature 46 °F 55 °F 44 °F (2010)
Degree Days  
Heating Degree Days 6    
Growing Degree Days 10 (Base 50)    
Moisture  
Dew Point 47 °F    
Average Humidity 64    
Maximum Humidity 93    
Minimum Humidity 34    
Precipitation  
Precipitation 0.00 in - - ()
Sea Level Pressure  
Sea Level Pressure 30.11 in    
Wind  
Wind Speed 4 mph (South)    
Max Wind Speed 12 mph    
Max Gust Speed 20 mph    
Visibility 10 miles    
Events      
Averages and records for this station are not official NWS values.
T = Trace of Precipitation, MM = Missing Value Source: NWS Daily Summary

Daily Weather History Graph

Daily Weather History Graph

Search for Another Location

Airport or City:

Trip Planner

Search our weather history database for the weather conditions in past years. The results will help you decide how hot, cold, wet, or windy it might be!

Date:

Astronomy

Oct. 06, 2014 Rise Set
Actual Time 7:08 AM EDT 6:46 PM EDT
Civil Twilight 6:43 AM EDT 7:12 PM EDT
Nautical Twilight 6:13 AM EDT 7:41 PM EDT
Astronomical Twilight 5:44 AM EDT 8:10 PM EDT
Moon 5:38 PM EDT (10/6) 4:57 AM EDT (10/6)
Length of Visible Light 12h 29m
Length of Day
11h 38m
Waxing Gibbous, 95% of the Moon is Illuminated
Oct 6
Waxing Gibbous
Oct 8
Full
Oct 15
Last Quarter
Oct 23
New
Oct 30
First Quarter

Hourly Weather History & Observations

Time (EDT) Temp. Dew Point Humidity Pressure Visibility Wind Dir Wind Speed Gust Speed Precip Events Conditions
12:56 AM 51.1 °F 46.0 °F 83% 30.07 in 10.0 mi WSW 5.8 mph - N/A   Clear
1:56 AM 48.9 °F 46.9 °F 93% 30.08 in 10.0 mi Calm Calm - N/A   Clear
2:56 AM 50.0 °F 46.0 °F 86% 30.07 in 10.0 mi West 3.5 mph - N/A   Clear
3:56 AM 48.0 °F 46.0 °F 93% 30.06 in 10.0 mi Calm Calm - N/A   Clear
4:56 AM 48.0 °F 46.0 °F 93% 30.08 in 10.0 mi Calm Calm - N/A   Clear
5:56 AM 46.9 °F 45.0 °F 93% 30.10 in 10.0 mi Calm Calm - N/A   Clear
6:56 AM 46.9 °F 45.0 °F 93% 30.12 in 10.0 mi Calm Calm - N/A   Clear
7:56 AM 48.9 °F 46.9 °F 93% 30.14 in 10.0 mi Calm Calm - N/A   Clear
8:56 AM 55.9 °F 48.9 °F 77% 30.14 in 10.0 mi Calm Calm - N/A   Clear
9:56 AM 64.0 °F 45.0 °F 50% 30.14 in 10.0 mi South 3.5 mph - N/A   Clear
10:56 AM 69.1 °F 42.1 °F 38% 30.15 in 10.0 mi South 8.1 mph - N/A   Clear
11:56 AM 70.0 °F 42.1 °F 36% 30.15 in 10.0 mi South 9.2 mph - N/A   Clear
12:56 PM 72.0 °F 43.0 °F 35% 30.13 in 10.0 mi SSE 8.1 mph - N/A   Clear
1:56 PM 73.0 °F 44.1 °F 35% 30.10 in 10.0 mi SSE 10.4 mph - N/A   Clear
2:56 PM 73.0 °F 43.0 °F 34% 30.09 in 10.0 mi South 8.1 mph 19.6 mph N/A   Clear
3:56 PM 72.0 °F 43.0 °F 35% 30.08 in 10.0 mi South 9.2 mph - N/A   Clear
4:56 PM 71.1 °F 45.0 °F 39% 30.08 in 10.0 mi South 11.5 mph - N/A   Clear
5:56 PM 69.1 °F 48.0 °F 47% 30.09 in 10.0 mi South 6.9 mph - N/A   Clear
6:56 PM 66.0 °F 48.9 °F 54% 30.11 in 10.0 mi South 4.6 mph - N/A   Clear
7:56 PM 63.0 °F 51.1 °F 65% 30.10 in 10.0 mi South 4.6 mph - N/A   Clear
8:56 PM 62.1 °F 52.0 °F 70% 30.12 in 10.0 mi SSW 4.6 mph - N/A   Clear
9:56 PM 62.1 °F 51.1 °F 67% 30.12 in 10.0 mi SSW 4.6 mph - N/A   Clear
10:56 PM 62.1 °F 51.1 °F 67% 30.12 in 10.0 mi South 3.5 mph - N/A   Clear
11:56 PM 61.0 °F 52.0 °F 72% 30.13 in 10.0 mi SSW 4.6 mph - N/A   Clear